User: anonymous   Login
Location: Culleoka
(33.1312°N, 96.4919°W)
Time: 20:32:09
(UTC+00:00)
Language:

Cosmos 1500 Rocket - Orbit

View from above orbital plane
View from above orbital plane
View from above satellite
View from above satellite

Ground track
Ground track

The orbit data is extracted from the following two-line orbital elements,

1 14373U 83099B   22147.84534241  .00000392  00000-0  44063-4 0  9999
2 14373  82.5400 356.7796 0020911  31.0841 329.1606 14.83963050 67540
Epoch (UTC): 27 May 2022 20:17:17
Eccentricity: 0.0020911
inclination: 82.5400°
perigee height: 602 km
apogee height: 631 km
right ascension of ascending node: 356.7796°
argument of perigee: 31.0841°
revolutions per day: 14.83963050
mean anomaly at epoch: 329.1606°
orbit number at epoch: 6754

The dashed part of the orbit path shows where the satellite is in the earth's shadow,  

DLR